Flag for U.S.A. Weather past 2 weeks in Los Angeles, California, U.S.A.

Now
59 °F

Clear.


Feels Like: 59 °F
Forecast: 56 / 74 °F
Wind: No wind

Location: Los Angeles / USC Campus Downtown

Current Time: Apr 25, 2015 at 10:58:39 PM

Latest Report: Apr 25, 2015 at 9:47 PM


Visibility: 10 mi

Pressure: 29.89 "Hg

Humidity: 72%

Dew point: 50 °F

Location of Los AngelesLocation

Historic Weather in Los Angeles — Graph

°F

Los Angeles temperature yesterday

Maximum temperature yesterday: 67 °F (at 1:47 PM)
Minimum temperature yesterday: 58 °F (at 11:47 PM)
Average temperature yesterday: 61 °F

Past Weeks' High & Low Weather Summary

 TemperatureHumidityPressure
High80 °F (Apr 16, 12:47 PM)90% (Apr 12, 11:47 PM)30.09 "Hg (Apr 12, 11:47 PM)
Low54 °F (Apr 11, 5:47 AM)10% (Apr 16, 12:47 PM)29.83 "Hg (Apr 20, 5:47 PM)
Average64 °F61%29.94 "Hg
* Reported Apr 10 9:47 PM — Apr 25 9:47 PM, Los Angeles, Weather by CustomWeather, © 2015

Note: Actual official high and low records may vary slightly from our data, if they occured in-between our weather recording intervals... More about our weather records

Advertising

Los Angeles weather history for previous 24 hours

 ConditionsComfort  
Time TempWeatherWind HumidityBarometerVisibility
9:47 PM
Sat, Apr 25
59 °FClear.No wind72%29.89 "Hg10 mi
8:47 PM60 °FClear.5 mph72%29.87 "Hg10 mi
7:47 PM60 °FSunny.6 mph72%29.86 "Hg10 mi
6:47 PM62 °FPartly sunny.3 mph67%29.86 "Hg10 mi
5:47 PM64 °FScattered clouds.7 mph65%29.85 "Hg10 mi
4:47 PM65 °FPartly sunny.8 mph70%29.85 "Hg10 mi
3:58 PM65 °FMostly cloudy.5 mph73%29.88 "Hg10 mi
3:47 PM65 °FCloudy.8 mph70%29.88 "Hg10 mi
2:47 PM63 °FMore clouds than sun.5 mph73%29.91 "Hg10 mi
1:51 PM63 °FMore clouds than sun.5 mph73%29.94 "Hg10 mi
1:47 PM64 °FCloudy.7 mph68%29.94 "Hg10 mi
12:47 PM63 °FOvercast.8 mph65%29.96 "Hg10 mi
11:47 AM65 °FSunny.5 mph59%29.97 "Hg10 mi
10:47 AM66 °FScattered clouds.3 mph54%29.98 "Hg10 mi
10:04 AM63 °FBroken clouds.6 mph65%29.99 "Hg10 mi
10:01 AM63 °FBroken clouds.3 mph65%29.99 "Hg10 mi
8:47 AM60 °FMostly cloudy.No wind75%29.98 "Hg10 mi
8:03 AM59 °FMostly cloudy.No wind75%29.99 "Hg10 mi
7:57 AM59 °FCloudy.No wind75%29.99 "Hg10 mi
7:47 AM58 °FPartly sunny.No wind75%29.98 "Hg10 mi
6:47 AM58 °FPassing clouds.No wind75%29.96 "Hg10 mi
5:47 AM58 °FOvercast.No wind75%29.97 "Hg10 mi
4:47 AM58 °FOvercast.No wind75%29.97 "Hg10 mi
3:47 AM57 °FPassing clouds.No wind81%29.97 "Hg10 mi
2:47 AM57 °FOvercast.No wind83%29.97 "Hg10 mi
1:47 AM56 °FClear.No wind87%29.98 "Hg10 mi
12:47 AM57 °FClear.No wind83%29.99 "Hg10 mi
11:47 PM
Fri, Apr 24
58 °FClear.No wind84%29.99 "Hg10 mi
10:47 PM59 °FPassing clouds.3 mph78%30.00 "Hg10 mi
Weather by CustomWeather, © 2015

See weather overviewHow to use our weather pages